time, beta470, beta532, beta650
yyyy/mm/dd HH:MM:SS.fff, counts, counts, counts
2023/06/17 11:00:04.864, 112, 139, 88
2023/06/17 11:00:05.999, 117, 133, 86
2023/06/17 11:00:07.135, 110, 131, 85
2023/06/17 11:00:08.254, 116, 130, 85
2023/06/17 11:00:09.391, 111, 130, 85
2023/06/17 11:00:10.527, 114, 133, 84
2023/06/17 11:00:11.647, 115, 137, 86
2023/06/17 11:00:12.783, 116, 163, 87
2023/06/17 11:00:13.903, 123, 134, 106
2023/06/17 11:00:15.039, 120, 146, 90
2023/06/17 11:00:16.175, 125, 132, 87
2023/06/17 11:00:17.294, 117, 139, 87
2023/06/17 11:00:18.430, 126, 145, 96
2023/06/17 11:00:19.550, 118, 146, 93
2023/06/17 11:00:20.686, 115, 137, 90
2023/06/17 11:00:21.821, 118, 143, 94
2023/06/17 11:00:22.942, 118, 130, 96
2023/06/17 11:00:24.078, 122, 142, 89
2023/06/17 11:00:25.198, 120, 144, 91
2023/06/17 11:00:26.334, 122, 143, 93
2023/06/17 11:00:27.470, 121, 145, 94
2023/06/17 11:00:28.590, 124, 146, 91
2023/06/17 11:00:29.726, 116, 147, 90
2023/06/17 11:00:30.846, 122, 146, 94
2023/06/17 11:00:31.982, 118, 142, 97
2023/06/17 11:00:33.118, 119, 147, 90
2023/06/17 11:00:34.237, 124, 146, 91
2023/06/17 11:00:35.373, 123, 144, 95
2023/06/17 11:00:36.493, 125, 144, 101
2023/06/17 11:00:37.629, 115, 146, 91
2023/06/17 11:00:38.765, 121, 140, 92
2023/06/17 11:00:39.885, 114, 144, 92
2023/06/17 11:00:41.021, 115, 137, 96
2023/06/17 11:00:42.141, 114, 135, 97
2023/06/17 11:00:43.277, 118, 143, 88
2023/06/17 11:00:44.413, 116, 142, 99
2023/06/17 11:00:45.533, 116, 143, 89
2023/06/17 11:00:46.668, 114, 146, 88
2023/06/17 11:00:47.789, 117, 140, 89
2023/06/17 11:00:48.925, 113, 135, 93
2023/06/17 11:00:50.060, 114, 134, 94
2023/06/17 11:00:51.180, 117, 132, 89
2023/06/17 11:00:52.316, 115, 135, 89
2023/06/17 11:00:53.436, 116, 132, 89
2023/06/17 11:00:54.572, 117, 131, 86
2023/06/17 11:00:55.708, 116, 132, 88
2023/06/17 11:00:56.828, 110, 131, 85
2023/06/17 11:00:57.964, 112, 129, 89
2023/06/17 11:00:59.100, 109, 134, 88
2023/06/17 11:01:00.220, 112, 131, 85
2023/06/17 11:01:01.356, 110, 135, 85
2023/06/17 11:01:02.476, 112, 148, 83
2023/06/17 11:01:03.612, 112, 131, 85
2023/06/17 11:01:04.748, 113, 140, 97
2023/06/17 11:01:05.867, 112, 132, 85
2023/06/17 11:01:07.003, 110, 126, 86
2023/06/17 11:01:08.124, 113, 132, 85
2023/06/17 11:01:09.259, 111, 132, 81
2023/06/17 11:01:10.395, 109, 131, 87
2023/06/17 11:01:11.515, 104, 129, 80
2023/06/17 11:01:12.651, 109, 125, 84
2023/06/17 11:01:13.771, 110, 127, 84
2023/06/17 11:01:14.907, 109, 128, 84
2023/06/17 11:01:16.043, 109, 124, 80
2023/06/17 11:01:17.163, 106, 117, 80
2023/06/17 11:01:18.299, 116, 120, 86
2023/06/17 11:01:19.418, 108, 129, 84
2023/06/17 11:01:20.555, 111, 128, 85
2023/06/17 11:01:21.691, 110, 127, 81
2023/06/17 11:01:22.810, 105, 127, 81
2023/06/17 11:01:23.946, 110, 121, 80
2023/06/17 11:01:25.066, 104, 119, 79
2023/06/17 11:01:26.203, 107, 118, 82
2023/06/17 11:01:27.339, 105, 124, 79
2023/06/17 11:01:28.458, 110, 117, 77
2023/06/17 11:01:29.594, 110, 116, 80
2023/06/17 11:01:30.714, 108, 118, 78
2023/06/17 11:01:31.850, 105, 115, 76
2023/06/17 11:01:32.986, 106, 124, 83
2023/06/17 11:01:34.106, 108, 120, 80
2023/06/17 11:01:35.242, 103, 117, 78
2023/06/17 11:01:36.362, 104, 121, 82
2023/06/17 11:01:37.497, 108, 114, 73
2023/06/17 11:01:38.634, 100, 120, 73
2023/06/17 11:01:39.753, 105, 125, 76
2023/06/17 11:01:40.889, 99, 113, 83
2023/06/17 11:01:42.009, 102, 113, 77
2023/06/17 11:01:43.145, 101, 121, 78
2023/06/17 11:01:44.280, 103, 189, 77
2023/06/17 11:01:45.401, 101, 118, 84
2023/06/17 11:01:46.537, 99, 114, 78
2023/06/17 11:01:47.657, 99, 113, 79
2023/06/17 11:01:48.793, 106, 118, 77
2023/06/17 11:01:49.929, 106, 121, 73
2023/06/17 11:01:51.049, 100, 110, 76
2023/06/17 11:01:52.185, 104, 111, 72
2023/06/17 11:01:53.305, 106, 127, 75
2023/06/17 11:01:54.441, 101, 113, 77
2023/06/17 11:01:55.576, 102, 136, 81
2023/06/17 11:01:56.696, 100, 113, 74
2023/06/17 11:01:57.832, 102, 106, 83
2023/06/17 11:01:58.952, 103, 109, 75
2023/06/17 11:02:00.088, 100, 110, 75
2023/06/17 11:02:01.224, 100, 109, 76
2023/06/17 11:02:02.344, 101, 103, 75
2023/06/17 11:02:03.480, 99, 108, 74
2023/06/17 11:02:04.600, 104, 109, 73
2023/06/17 11:02:05.736, 99, 108, 79
2023/06/17 11:02:06.856, 97, 109, 74
2023/06/17 11:02:07.992, 102, 108, 70
2023/06/17 11:02:09.128, 99, 109, 72
2023/06/17 11:02:10.248, 98, 111, 71
2023/06/17 11:02:11.384, 100, 106, 70
2023/06/17 11:02:12.503, 100, 104, 71
2023/06/17 11:02:13.639, 99, 105, 73
2023/06/17 11:02:14.775, 104, 108, 75
2023/06/17 11:02:15.896, 101, 115, 78
2023/06/17 11:02:17.031, 98, 109, 74
2023/06/17 11:02:18.151, 99, 106, 75
2023/06/17 11:02:19.287, 95, 106, 73
2023/06/17 11:02:20.407, 99, 106, 71
2023/06/17 11:02:21.543, 99, 107, 73
2023/06/17 11:02:22.679, 98, 109, 76
2023/06/17 11:02:23.799, 94, 105, 84
2023/06/17 11:02:24.935, 101, 105, 73
2023/06/17 11:02:26.055, 98, 111, 72
2023/06/17 11:02:27.191, 99, 106, 73
2023/06/17 11:02:28.310, 98, 109, 71
2023/06/17 11:02:29.446, 99, 107, 73
2023/06/17 11:02:30.566, 96, 105, 72
2023/06/17 11:02:31.702, 98, 109, 80
2023/06/17 11:02:32.822, 100, 105, 75
2023/06/17 11:02:33.958, 97, 106, 72
2023/06/17 11:02:35.094, 96, 112, 70
2023/06/17 11:02:36.214, 97, 103, 69
2023/06/17 11:02:37.350, 97, 109, 71
2023/06/17 11:02:38.470, 100, 106, 74
2023/06/17 11:02:39.606, 98, 105, 70
2023/06/17 11:02:40.726, 96, 103, 68
2023/06/17 11:02:41.862, 99, 105, 70
2023/06/17 11:02:42.997, 94, 101, 72
2023/06/17 11:02:44.117, 93, 104, 64
2023/06/17 11:02:45.253, 97, 106, 69
2023/06/17 11:02:46.373, 97, 108, 66
2023/06/17 11:02:47.509, 95, 99, 72
2023/06/17 11:02:48.629, 97, 99, 71
2023/06/17 11:02:49.765, 93, 103, 71
2023/06/17 11:02:50.885, 95, 100, 69
2023/06/17 11:02:52.021, 96, 102, 75
2023/06/17 11:02:53.141, 96, 104, 70
2023/06/17 11:02:54.277, 95, 99, 72
2023/06/17 11:02:55.397, 95, 109, 68
2023/06/17 11:02:56.533, 95, 102, 83
2023/06/17 11:02:57.669, 99, 106, 70
2023/06/17 11:02:58.789, 95, 104, 69
2023/06/17 11:02:59.925, 93, 105, 70
2023/06/17 11:03:01.044, 95, 101, 70
2023/06/17 11:03:02.180, 97, 105, 70
2023/06/17 11:03:03.300, 96, 100, 70
2023/06/17 11:03:04.436, 94, 102, 70
2023/06/17 11:03:05.556, 91, 106, 70
2023/06/17 11:03:06.692, 95, 101, 68
2023/06/17 11:03:07.828, 96, 104, 71
2023/06/17 11:03:08.948, 92, 111, 70
2023/06/17 11:03:10.084, 92, 101, 70
2023/06/17 11:03:11.204, 94, 101, 67
2023/06/17 11:03:12.340, 94, 103, 83
2023/06/17 11:03:13.460, 95, 106, 69
2023/06/17 11:03:14.596, 92, 102, 70
2023/06/17 11:03:15.715, 96, 100, 72
2023/06/17 11:03:16.852, 94, 102, 68
2023/06/17 11:03:17.987, 93, 102, 68
2023/06/17 11:03:19.107, 96, 106, 68
2023/06/17 11:03:20.243, 94, 96, 74
2023/06/17 11:03:21.363, 95, 98, 67
2023/06/17 11:03:22.499, 93, 96, 69
2023/06/17 11:03:23.619, 96, 97, 69
2023/06/17 11:03:24.754, 93, 98, 63
2023/06/17 11:03:25.875, 94, 100, 69
2023/06/17 11:03:27.010, 94, 104, 68
2023/06/17 11:03:28.131, 96, 95, 67
2023/06/17 11:03:29.267, 94, 99, 71
2023/06/17 11:03:30.387, 92, 99, 66
2023/06/17 11:03:31.523, 96, 97, 67
2023/06/17 11:03:32.642, 96, 97, 68
2023/06/17 11:03:33.779, 95, 96, 68
2023/06/17 11:03:34.899, 92, 94, 70
2023/06/17 11:03:36.034, 97, 96, 71
2023/06/17 11:03:37.154, 92, 103, 70
2023/06/17 11:03:38.290, 95, 100, 70
2023/06/17 11:03:39.410, 92, 103, 72
2023/06/17 11:03:40.546, 94, 102, 68
2023/06/17 11:03:41.666, 89, 98, 72
2023/06/17 11:03:42.802, 93, 94, 68
2023/06/17 11:03:43.922, 89, 96, 68
2023/06/17 11:03:45.058, 92, 95, 68
2023/06/17 11:03:46.178, 94, 93, 67
2023/06/17 11:03:47.313, 92, 97, 68
2023/06/17 11:03:48.434, 90, 106, 68
2023/06/17 11:03:49.569, 90, 110, 70
2023/06/17 11:03:50.706, 95, 113, 67
2023/06/17 11:03:51.825, 88, 102, 66
2023/06/17 11:03:52.961, 89, 104, 68
2023/06/17 11:03:54.081, 91, 103, 66
2023/06/17 11:03:55.217, 93, 98, 66
2023/06/17 11:03:56.337, 92, 97, 70
2023/06/17 11:03:57.473, 94, 95, 69
2023/06/17 11:03:58.593, 94, 98, 65
2023/06/17 11:03:59.729, 90, 101, 68
2023/06/17 11:04:00.849, 93, 97, 70
2023/06/17 11:04:01.985, 91, 97, 67
2023/06/17 11:04:03.105, 92, 98, 67
2023/06/17 11:04:04.240, 93, 99, 63
2023/06/17 11:04:05.360, 93, 98, 67
2023/06/17 11:04:06.496, 96, 94, 66
2023/06/17 11:04:07.616, 95, 92, 67
2023/06/17 11:04:08.752, 93, 93, 67
2023/06/17 11:04:09.872, 91, 97, 64
2023/06/17 11:04:11.008, 93, 95, 68
2023/06/17 11:04:12.128, 90, 108, 68
2023/06/17 11:04:13.264, 98, 106, 71
2023/06/17 11:04:14.400, 98, 100, 70
2023/06/17 11:04:15.520, 94, 99, 61
2023/06/17 11:04:16.656, 90, 109, 65
2023/06/17 11:04:17.776, 91, 104, 66
2023/06/17 11:04:18.912, 91, 102, 65
2023/06/17 11:04:20.032, 91, 98, 69
2023/06/17 11:04:21.168, 91, 104, 67
2023/06/17 11:04:22.288, 91, 99, 67
2023/06/17 11:04:23.423, 92, 100, 65
2023/06/17 11:04:24.543, 89, 97, 68
2023/06/17 11:04:25.679, 93, 95, 70
2023/06/17 11:04:26.799, 93, 99, 65
2023/06/17 11:04:27.935, 89, 97, 65
2023/06/17 11:04:29.055, 93, 99, 65
2023/06/17 11:04:30.191, 87, 104, 65
2023/06/17 11:04:31.311, 89, 96, 62
2023/06/17 11:04:32.447, 89, 95, 65
2023/06/17 11:04:33.567, 93, 97, 68
2023/06/17 11:04:34.703, 92, 97, 69
2023/06/17 11:04:35.822, 92, 96, 65
2023/06/17 11:04:36.958, 91, 101, 72
2023/06/17 11:04:38.079, 92, 100, 67
2023/06/17 11:04:39.215, 91, 100, 65
2023/06/17 11:04:40.350, 95, 92, 65
2023/06/17 11:04:41.470, 91, 97, 67
2023/06/17 11:04:42.606, 92, 96, 67
2023/06/17 11:04:43.726, 94, 97, 72
2023/06/17 11:04:44.862, 91, 99, 66
2023/06/17 11:04:45.982, 92, 92, 65
2023/06/17 11:04:47.118, 95, 96, 65
2023/06/17 11:04:48.237, 92, 95, 68
2023/06/17 11:04:49.374, 94, 94, 65
2023/06/17 11:04:50.493, 92, 93, 71
2023/06/17 11:04:51.630, 92, 95, 68
2023/06/17 11:04:52.750, 89, 94, 66
2023/06/17 11:04:53.885, 88, 99, 67
2023/06/17 11:04:55.005, 90, 101, 65
2023/06/17 11:04:56.141, 93, 107, 68
2023/06/17 11:04:57.261, 92, 106, 65
2023/06/17 11:04:58.397, 89, 100, 65
2023/06/17 11:04:59.517, 90, 94, 68
2023/06/17 11:05:00.653, 89, 96, 67
2023/06/17 11:05:01.772, 91, 94, 68
2023/06/17 11:05:02.909, 86, 97, 64
2023/06/17 11:05:04.029, 90, 98, 69
2023/06/17 11:05:05.165, 91, 97, 67
2023/06/17 11:05:06.285, 92, 94, 68
2023/06/17 11:05:07.421, 90, 97, 67
2023/06/17 11:05:08.541, 92, 93, 68
2023/06/17 11:05:09.676, 90, 96, 64
2023/06/17 11:05:10.797, 88, 97, 65
2023/06/17 11:05:11.932, 91, 94, 68
2023/06/17 11:05:13.052, 92, 93, 67
2023/06/17 11:05:14.188, 91, 95, 68
2023/06/17 11:05:15.308, 89, 101, 64
2023/06/17 11:05:16.444, 93, 97, 65
2023/06/17 11:05:17.563, 90, 95, 68
2023/06/17 11:05:18.700, 90, 98, 64
2023/06/17 11:05:19.820, 90, 100, 65
2023/06/17 11:05:20.956, 88, 98, 64
2023/06/17 11:05:22.091, 89, 99, 66
2023/06/17 11:05:23.212, 89, 92, 82
2023/06/17 11:05:24.348, 95, 94, 63
2023/06/17 11:05:25.468, 90, 92, 67
2023/06/17 11:05:26.587, 89, 97, 66
2023/06/17 11:05:27.724, 90, 110, 65
2023/06/17 11:05:28.859, 89, 97, 67
2023/06/17 11:05:29.979, 92, 94, 63
2023/06/17 11:05:31.115, 91, 90, 64
2023/06/17 11:05:32.235, 89, 96, 65
2023/06/17 11:05:33.355, 89, 95, 63
2023/06/17 11:05:34.491, 92, 91, 70
2023/06/17 11:05:35.610, 92, 92, 66
2023/06/17 11:05:36.747, 94, 95, 64
2023/06/17 11:05:37.867, 90, 91, 64
2023/06/17 11:05:39.003, 89, 92, 66
2023/06/17 11:05:40.122, 92, 96, 64
2023/06/17 11:05:41.259, 91, 94, 65
2023/06/17 11:05:42.379, 89, 93, 64
2023/06/17 11:05:43.515, 91, 92, 66
2023/06/17 11:05:44.650, 89, 93, 64
2023/06/17 11:05:45.770, 90, 93, 66
2023/06/17 11:05:46.906, 91, 97, 66
2023/06/17 11:05:48.026, 90, 98, 65
2023/06/17 11:05:49.162, 90, 93, 67
2023/06/17 11:05:50.282, 90, 92, 63
2023/06/17 11:05:51.418, 89, 100, 68
2023/06/17 11:05:52.538, 98, 102, 65
2023/06/17 11:05:53.673, 90, 98, 69
2023/06/17 11:05:54.794, 93, 97, 64
2023/06/17 11:05:55.930, 96, 94, 66
2023/06/17 11:05:57.050, 93, 93, 65
2023/06/17 11:05:58.185, 91, 99, 66
2023/06/17 11:05:59.306, 91, 96, 67
2023/06/17 11:06:00.442, 91, 94, 66
2023/06/17 11:06:01.562, 90, 93, 67
2023/06/17 11:06:02.698, 89, 94, 67
2023/06/17 11:06:03.817, 90, 95, 68
2023/06/17 11:06:04.953, 91, 95, 65
2023/06/17 11:06:06.073, 87, 97, 70
2023/06/17 11:06:07.208, 90, 95, 69
2023/06/17 11:06:08.329, 90, 98, 65
2023/06/17 11:06:09.465, 90, 93, 64
2023/06/17 11:06:10.585, 91, 95, 67
2023/06/17 11:06:11.720, 90, 93, 63
2023/06/17 11:06:12.841, 88, 93, 65
2023/06/17 11:06:13.977, 88, 94, 65
2023/06/17 11:06:15.097, 90, 94, 63
2023/06/17 11:06:16.232, 88, 94, 65
2023/06/17 11:06:17.352, 91, 95, 64
2023/06/17 11:06:18.488, 91, 92, 66
2023/06/17 11:06:19.608, 91, 93, 67
2023/06/17 11:06:20.745, 93, 104, 64
2023/06/17 11:06:21.864, 90, 94, 66
2023/06/17 11:06:23.000, 91, 94, 64
2023/06/17 11:06:24.120, 89, 92, 66
2023/06/17 11:06:25.256, 90, 96, 69
2023/06/17 11:06:26.376, 91, 96, 68
2023/06/17 11:06:27.512, 87, 94, 68
2023/06/17 11:06:28.632, 92, 93, 65
2023/06/17 11:06:29.768, 91, 101, 67
2023/06/17 11:06:30.888, 88, 99, 66
2023/06/17 11:06:32.024, 93, 95, 65
2023/06/17 11:06:33.144, 89, 103, 67
2023/06/17 11:06:34.279, 86, 106, 68
2023/06/17 11:06:35.400, 89, 104, 68
2023/06/17 11:06:36.535, 92, 98, 68
2023/06/17 11:06:37.655, 91, 91, 64
2023/06/17 11:06:38.791, 92, 92, 69
2023/06/17 11:06:39.911, 86, 97, 63
2023/06/17 11:06:41.046, 91, 102, 67
2023/06/17 11:06:42.183, 87, 103, 65
2023/06/17 11:06:43.303, 90, 91, 66
2023/06/17 11:06:44.439, 92, 92, 66
2023/06/17 11:06:45.559, 89, 92, 64
2023/06/17 11:06:46.695, 92, 92, 65
2023/06/17 11:06:47.814, 91, 92, 63
2023/06/17 11:06:48.950, 89, 95, 64
2023/06/17 11:06:50.070, 89, 94, 65
2023/06/17 11:06:51.206, 88, 92, 66
2023/06/17 11:06:52.326, 91, 96, 67
2023/06/17 11:06:53.462, 89, 102, 65
2023/06/17 11:06:54.582, 88, 99, 67
2023/06/17 11:06:55.718, 88, 98, 67
2023/06/17 11:06:56.837, 92, 101, 67
2023/06/17 11:06:57.974, 91, 96, 66
2023/06/17 11:06:59.094, 89, 95, 67
2023/06/17 11:07:00.230, 89, 98, 66
2023/06/17 11:07:01.350, 90, 93, 65
2023/06/17 11:07:02.486, 92, 92, 67
2023/06/17 11:07:03.606, 88, 92, 65
2023/06/17 11:07:04.741, 90, 91, 67
2023/06/17 11:07:05.861, 87, 91, 63
2023/06/17 11:07:06.997, 90, 90, 64
2023/06/17 11:07:08.117, 89, 93, 63
2023/06/17 11:07:09.253, 90, 98, 63
2023/06/17 11:07:10.373, 93, 98, 63
2023/06/17 11:07:11.509, 88, 96, 67
2023/06/17 11:07:12.629, 91, 97, 67
2023/06/17 11:07:13.765, 92, 101, 71
2023/06/17 11:07:14.884, 91, 96, 66
2023/06/17 11:07:16.021, 90, 94, 69
2023/06/17 11:07:17.141, 87, 98, 67
2023/06/17 11:07:18.277, 90, 100, 65
2023/06/17 11:07:19.396, 90, 97, 64
2023/06/17 11:07:20.533, 90, 95, 66
2023/06/17 11:07:21.652, 90, 96, 65
2023/06/17 11:07:22.788, 89, 95, 62
2023/06/17 11:07:23.908, 91, 93, 67
2023/06/17 11:07:25.044, 87, 93, 64
2023/06/17 11:07:26.164, 90, 98, 70
2023/06/17 11:07:27.300, 89, 96, 66
2023/06/17 11:07:28.420, 90, 95, 64
2023/06/17 11:07:29.556, 91, 93, 65
2023/06/17 11:07:30.676, 89, 91, 65
2023/06/17 11:07:31.812, 90, 91, 65
2023/06/17 11:07:32.932, 90, 91, 62
2023/06/17 11:07:34.068, 90, 93, 65
2023/06/17 11:07:35.188, 88, 90, 67
2023/06/17 11:07:36.324, 89, 95, 70
2023/06/17 11:07:37.443, 88, 93, 64
2023/06/17 11:07:38.580, 91, 90, 65
2023/06/17 11:07:39.699, 91, 90, 66
2023/06/17 11:07:40.835, 91, 88, 66
2023/06/17 11:07:41.955, 91, 94, 65
2023/06/17 11:07:43.091, 91, 92, 63
2023/06/17 11:07:44.211, 93, 92, 69
2023/06/17 11:07:45.347, 89, 90, 66
2023/06/17 11:07:46.467, 90, 93, 66
2023/06/17 11:07:47.603, 87, 91, 66
2023/06/17 11:07:48.723, 90, 93, 66
2023/06/17 11:07:49.859, 89, 93, 65
2023/06/17 11:07:50.979, 91, 93, 66
2023/06/17 11:07:52.115, 91, 97, 65
2023/06/17 11:07:53.235, 92, 95, 66
2023/06/17 11:07:54.371, 89, 92, 65
2023/06/17 11:07:55.490, 91, 95, 65
2023/06/17 11:07:56.626, 89, 96, 65
2023/06/17 11:07:57.746, 91, 98, 66
2023/06/17 11:07:58.882, 90, 89, 63
2023/06/17 11:08:00.002, 90, 89, 68
2023/06/17 11:08:01.138, 88, 91, 66
2023/06/17 11:08:02.258, 91, 92, 65
2023/06/17 11:08:03.394, 90, 94, 65
2023/06/17 11:08:04.513, 89, 94, 68
2023/06/17 11:08:05.650, 90, 93, 62
2023/06/17 11:08:06.770, 88, 92, 66
2023/06/17 11:08:07.906, 90, 93, 68
2023/06/17 11:08:09.041, 90, 94, 67
2023/06/17 11:08:10.162, 90, 93, 66
2023/06/17 11:08:11.297, 89, 90, 66
2023/06/17 11:08:12.418, 90, 94, 64
2023/06/17 11:08:13.553, 90, 94, 63
2023/06/17 11:08:14.673, 89, 94, 65
2023/06/17 11:08:15.809, 88, 92, 65
2023/06/17 11:08:16.930, 92, 94, 65
2023/06/17 11:08:18.064, 89, 92, 64
2023/06/17 11:08:19.185, 90, 92, 65
2023/06/17 11:08:20.321, 89, 95, 66
2023/06/17 11:08:21.441, 92, 94, 61
2023/06/17 11:08:22.577, 89, 96, 69
2023/06/17 11:08:23.697, 90, 96, 67
2023/06/17 11:08:24.833, 90, 92, 63
2023/06/17 11:08:25.953, 93, 90, 65
2023/06/17 11:08:27.088, 92, 88, 66
2023/06/17 11:08:28.208, 90, 91, 65
2023/06/17 11:08:29.344, 92, 95, 61
2023/06/17 11:08:30.464, 89, 89, 63
2023/06/17 11:08:31.584, 89, 91, 63
2023/06/17 11:08:32.720, 88, 94, 65
2023/06/17 11:08:33.840, 91, 94, 63
2023/06/17 11:08:34.975, 89, 91, 66
2023/06/17 11:08:36.096, 92, 93, 67
2023/06/17 11:08:37.231, 91, 94, 65
2023/06/17 11:08:38.351, 92, 94, 64
2023/06/17 11:08:39.488, 89, 92, 66
2023/06/17 11:08:40.608, 91, 92, 65
2023/06/17 11:08:41.744, 92, 93, 66
2023/06/17 11:08:42.864, 92, 95, 66
2023/06/17 11:08:43.999, 89, 93, 67
2023/06/17 11:08:45.135, 92, 93, 66
2023/06/17 11:08:46.255, 93, 94, 67
2023/06/17 11:08:47.391, 89, 97, 65
2023/06/17 11:08:48.510, 89, 94, 64
2023/06/17 11:08:49.647, 90, 92, 63
2023/06/17 11:08:50.767, 90, 93, 68
2023/06/17 11:08:51.903, 88, 95, 68
2023/06/17 11:08:53.023, 91, 97, 65
2023/06/17 11:08:54.159, 90, 98, 66
2023/06/17 11:08:55.279, 92, 99, 66
2023/06/17 11:08:56.415, 86, 97, 66
2023/06/17 11:08:57.535, 88, 94, 63
2023/06/17 11:08:58.670, 89, 97, 64
2023/06/17 11:08:59.791, 91, 95, 66
2023/06/17 11:09:00.926, 90, 92, 62
2023/06/17 11:09:02.046, 90, 95, 67
2023/06/17 11:09:03.182, 93, 93, 67
2023/06/17 11:09:04.302, 90, 97, 63
2023/06/17 11:09:05.438, 90, 100, 65
2023/06/17 11:09:06.558, 91, 98, 62
2023/06/17 11:09:07.694, 90, 95, 67
2023/06/17 11:09:08.814, 92, 93, 69
2023/06/17 11:09:09.950, 90, 95, 68
2023/06/17 11:09:11.070, 91, 93, 67
2023/06/17 11:09:12.206, 93, 95, 65
2023/06/17 11:09:13.326, 88, 92, 65
2023/06/17 11:09:14.462, 90, 93, 65
2023/06/17 11:09:15.582, 90, 93, 71
2023/06/17 11:09:16.718, 90, 91, 70
2023/06/17 11:09:17.837, 93, 92, 66
2023/06/17 11:09:18.973, 88, 93, 67
2023/06/17 11:09:20.093, 92, 89, 65
2023/06/17 11:09:21.229, 91, 92, 63
2023/06/17 11:09:22.349, 94, 92, 69
2023/06/17 11:09:23.485, 90, 97, 68
2023/06/17 11:09:24.605, 89, 92, 66
2023/06/17 11:09:25.740, 91, 93, 68
2023/06/17 11:09:26.861, 92, 95, 65
2023/06/17 11:09:27.997, 90, 91, 66
2023/06/17 11:09:29.117, 89, 92, 67
2023/06/17 11:09:30.253, 88, 97, 67
2023/06/17 11:09:31.373, 91, 97, 63
2023/06/17 11:09:32.509, 92, 91, 68
2023/06/17 11:09:33.629, 91, 92, 72
2023/06/17 11:09:34.764, 89, 90, 64
2023/06/17 11:09:35.885, 89, 92, 65
2023/06/17 11:09:37.020, 90, 93, 61
2023/06/17 11:09:38.140, 89, 96, 66
2023/06/17 11:09:39.275, 90, 93, 67
2023/06/17 11:09:40.396, 89, 95, 65
2023/06/17 11:09:41.531, 94, 90, 65
2023/06/17 11:09:42.652, 90, 93, 65
2023/06/17 11:09:43.787, 90, 96, 68
2023/06/17 11:09:44.908, 91, 94, 65
2023/06/17 11:09:46.044, 88, 93, 64
2023/06/17 11:09:47.164, 93, 93, 63
2023/06/17 11:09:48.299, 91, 95, 64
2023/06/17 11:09:49.420, 90, 92, 67
2023/06/17 11:09:50.555, 89, 100, 67
2023/06/17 11:09:51.675, 91, 94, 66
2023/06/17 11:09:52.811, 91, 102, 67
2023/06/17 11:09:53.931, 90, 103, 67
2023/06/17 11:09:55.067, 91, 95, 64
2023/06/17 11:09:56.187, 91, 93, 67
2023/06/17 11:09:57.323, 93, 92, 65
2023/06/17 11:09:58.443, 89, 93, 68
2023/06/17 11:09:59.579, 87, 96, 66
2023/06/17 11:10:00.699, 88, 91, 68
2023/06/17 11:10:01.835, 91, 90, 69
2023/06/17 11:10:02.955, 91, 90, 67
2023/06/17 11:10:04.091, 91, 92, 64
2023/06/17 11:10:05.210, 93, 92, 63
2023/06/17 11:10:06.346, 93, 94, 67
2023/06/17 11:10:07.466, 88, 91, 65
2023/06/17 11:10:08.602, 89, 90, 66
2023/06/17 11:10:09.722, 90, 102, 68
2023/06/17 11:10:10.858, 89, 93, 66
2023/06/17 11:10:11.994, 89, 95, 67
2023/06/17 11:10:13.114, 92, 96, 66
2023/06/17 11:10:14.250, 89, 95, 68
2023/06/17 11:10:15.370, 90, 97, 65
2023/06/17 11:10:16.506, 92, 98, 68
2023/06/17 11:10:17.626, 94, 98, 64
2023/06/17 11:10:18.762, 92, 97, 68
2023/06/17 11:10:19.882, 93, 99, 67
2023/06/17 11:10:21.018, 94, 99, 73
2023/06/17 11:10:22.138, 96, 100, 67
2023/06/17 11:10:23.273, 94, 110, 68
2023/06/17 11:10:24.393, 93, 108, 73
2023/06/17 11:10:25.529, 93, 111, 69
2023/06/17 11:10:26.649, 96, 104, 66
2023/06/17 11:10:27.785, 97, 106, 75
2023/06/17 11:10:28.905, 97, 101, 76
2023/06/17 11:10:30.041, 100, 120, 67
2023/06/17 11:10:31.177, 96, 104, 77
2023/06/17 11:10:32.297, 98, 105, 68
2023/06/17 11:10:33.432, 95, 105, 73
2023/06/17 11:10:34.553, 99, 112, 74
2023/06/17 11:10:35.688, 98, 111, 72
2023/06/17 11:10:36.809, 96, 113, 74
2023/06/17 11:10:37.944, 100, 104, 72
2023/06/17 11:10:39.064, 99, 114, 74
2023/06/17 11:10:40.200, 99, 110, 74
2023/06/17 11:10:41.336, 100, 117, 76
2023/06/17 11:10:42.456, 100, 113, 76
2023/06/17 11:10:43.592, 97, 107, 72
2023/06/17 11:10:44.712, 100, 110, 85
2023/06/17 11:10:45.848, 98, 107, 76
2023/06/17 11:10:46.984, 100, 116, 73
2023/06/17 11:10:48.104, 105, 113, 80
2023/06/17 11:10:49.240, 101, 116, 85
2023/06/17 11:10:50.360, 103, 113, 83
2023/06/17 11:10:51.496, 104, 113, 78
2023/06/17 11:10:52.632, 103, 111, 77
2023/06/17 11:10:53.752, 107, 115, 74
2023/06/17 11:10:54.887, 103, 115, 82
2023/06/17 11:10:56.007, 107, 114, 82
2023/06/17 11:10:57.143, 102, 120, 92
2023/06/17 11:10:58.279, 102, 113, 80
2023/06/17 11:10:59.399, 105, 116, 78
2023/06/17 11:11:00.535, 105, 117, 84
2023/06/17 11:11:01.655, 102, 115, 80
2023/06/17 11:11:02.791, 105, 120, 79
2023/06/17 11:11:03.927, 107, 117, 81
2023/06/17 11:11:05.047, 107, 125, 79
2023/06/17 11:11:06.183, 103, 117, 82
2023/06/17 11:11:07.303, 102, 120, 83
2023/06/17 11:11:08.439, 106, 121, 80
2023/06/17 11:11:09.575, 104, 122, 85
2023/06/17 11:11:10.695, 116, 128, 84
2023/06/17 11:11:11.830, 104, 121, 80
2023/06/17 11:11:12.950, 113, 116, 83
2023/06/17 11:11:14.086, 108, 120, 82
2023/06/17 11:11:15.222, 105, 115, 82
2023/06/17 11:11:16.342, 106, 123, 91
2023/06/17 11:11:17.478, 104, 115, 80
2023/06/17 11:11:18.598, 107, 118, 83
2023/06/17 11:11:19.734, 106, 120, 82
2023/06/17 11:11:20.870, 105, 132, 84
2023/06/17 11:11:21.990, 109, 124, 85
2023/06/17 11:11:23.126, 105, 120, 84
2023/06/17 11:11:24.261, 105, 121, 81
2023/06/17 11:11:25.382, 112, 131, 82
2023/06/17 11:11:26.518, 106, 123, 81
2023/06/17 11:11:27.638, 108, 126, 86
2023/06/17 11:11:28.773, 103, 130, 90
2023/06/17 11:11:29.893, 105, 126, 85
2023/06/17 11:11:31.029, 111, 129, 81
2023/06/17 11:11:32.165, 107, 146, 83
2023/06/17 11:11:33.285, 105, 126, 80
2023/06/17 11:11:34.421, 106, 123, 82
2023/06/17 11:11:35.541, 109, 128, 85
2023/06/17 11:11:36.677, 108, 127, 87
2023/06/17 11:11:37.813, 110, 124, 87
2023/06/17 11:11:38.933, 106, 126, 83
2023/06/17 11:11:40.069, 110, 123, 88
2023/06/17 11:11:41.188, 115, 120, 85
2023/06/17 11:11:42.325, 109, 122, 82
2023/06/17 11:11:43.461, 107, 125, 89
2023/06/17 11:11:44.580, 111, 124, 89
2023/06/17 11:11:45.716, 105, 128, 81
2023/06/17 11:11:46.836, 113, 130, 81
2023/06/17 11:11:47.972, 109, 122, 82
2023/06/17 11:11:49.108, 115, 123, 85
2023/06/17 11:11:50.228, 113, 131, 81
2023/06/17 11:11:51.364, 116, 126, 83
2023/06/17 11:11:52.484, 117, 127, 80
2023/06/17 11:11:53.620, 108, 135, 80
2023/06/17 11:11:54.755, 107, 127, 82
2023/06/17 11:11:55.876, 110, 122, 86
2023/06/17 11:11:57.012, 109, 124, 94
2023/06/17 11:11:58.148, 109, 126, 85